| time (UTC) | temp F | wind direction | speed knots | gust knots | rain 1hr in | rain 24hr in | rain mn in | humidity % | barometer mb |
| 20260505051554 | 39 | 0 | 0.0 | 0.0 | 0.00 | 0.31 | 0.31 | 91 | 1012.9 |
| 20260505050103 | 39 | 0 | 0.0 | 1.7 | 0.00 | 0.31 | 0.31 | 89 | 1012.8 |
| 20260505041559 | 39 | 0 | 0.0 | 2.6 | 0.01 | 0.31 | 0.31 | 89 | 1013.5 |
| 20260505040059 | 39 | 0 | 0.0 | 0.9 | 0.01 | 0.31 | 0.31 | 90 | 1013.5 |
| 20260505034557 | 40 | 0 | 0.0 | 0.0 | 0.06 | 0.31 | 0.31 | 90 | 1013.5 |
| 20260505033057 | 40 | 200 | 0.9 | 3.5 | 0.16 | 0.31 | 0.31 | 88 | 1013.6 |
| 20260505031607 | 40 | 219 | 0.9 | 3.5 | 0.22 | 0.30 | 0.30 | 87 | 1013.7 |
| 20260505030113 | 41 | 0 | 0.9 | 3.5 | 0.25 | 0.30 | 0.30 | 85 | 1013.5 |
| 20260505024606 | 41 | 226 | 0.0 | 3.5 | 0.22 | 0.25 | 0.25 | 86 | 1013.5 |
| 20260505023059 | 43 | 192 | 1.7 | 6.1 | 0.13 | 0.15 | 0.15 | 87 | 1013.5 |
| 20260505021608 | 43 | 0 | 1.7 | 2.6 | 0.06 | 0.08 | 0.08 | 87 | 1013.1 |
| 20260505020056 | 44 | 0 | 0.0 | 0.0 | 0.04 | 0.05 | 0.05 | 84 | 1012.9 |
| 20260505014608 | 45 | 0 | 0.0 | 0.9 | 0.02 | 0.03 | 0.03 | 80 | 1012.8 |
| 20260505013101 | 46 | 98 | 0.0 | 3.5 | 0.01 | 0.02 | 0.02 | 74 | 1012.2 |
| 20260505011606 | 48 | 25 | 0.0 | 0.9 | 0.01 | 0.02 | 0.02 | 64 | 1012.2 |
| 20260505010056 | 49 | 0 | 0.9 | 2.6 | 0.00 | 0.01 | 0.01 | 60 | 1012.1 |
| 20260505004556 | 50 | 0 | 0.0 | 2.6 | 0.00 | 0.01 | 0.01 | 59 | 1012.2 |
| 20260505003055 | 50 | 18 | 0.9 | 3.5 | 0.00 | 0.01 | 0.01 | 58 | 1012.0 |
| 20260505001558 | 50 | 56 | 0.0 | 2.6 | 0.00 | 0.01 | 0.01 | 58 | 1012.0 |
| 20260505000115 | 50 | 0 | 0.0 | 1.7 | 0.00 | 0.01 | 0.01 | 60 | 1012.0 |
| 20260504234558 | 50 | 0 | 0.0 | 2.6 | 0.00 | 0.01 | 0.01 | 60 | 1011.9 |
| 20260504233108 | 50 | 0 | 0.0 | 0.9 | 0.00 | 0.01 | 0.01 | 61 | 1012.0 |
| 20260504231555 | 49 | 0 | 0.0 | 2.6 | 0.01 | 0.01 | 0.01 | 65 | 1012.0 |
| 20260504230056 | 49 | 0 | 1.7 | 7.8 | 0.01 | 0.01 | 0.01 | 65 | 1011.5 |
| 20260504224609 | 48 | 94 | 0.0 | 1.7 | 0.01 | 0.01 | 0.01 | 77 | 1011.9 |
| 20260504223131 | 48 | 233 | 0.9 | 5.2 | 0.01 | 0.01 | 0.01 | 67 | 1012.4 |
| 20260504221600 | 52 | 241 | 1.7 | 5.2 | 0.00 | 0.00 | 0.00 | 54 | 1012.8 |
| 20260504220100 | 53 | 0 | 0.0 | 6.1 | 0.00 | 0.00 | 0.00 | 46 | 1011.9 |
| 20260504214559 | 53 | 0 | 2.6 | 7.0 | 0.00 | 0.00 | 0.00 | 45 | 1011.1 |
| 20260504213105 | 55 | 36 | 2.6 | 9.6 | 0.00 | 0.00 | 0.00 | 40 | 1011.2 |
| 20260504211602 | 56 | 30 | 4.3 | 11.3 | 0.00 | 0.00 | 0.00 | 37 | 1011.4 |
| 20260504210100 | 59 | 27 | 0.0 | 12.2 | 0.00 | 0.00 | 0.00 | 33 | 1011.2 |
| 20260504204557 | 63 | 49 | 0.9 | 6.1 | 0.00 | 0.00 | 0.00 | 26 | 1010.8 |
| 20260504203111 | 62 | 0 | 0.9 | 7.0 | 0.00 | 0.00 | 0.00 | 30 | 1010.7 |
| 20260504201601 | 60 | 5 | 0.0 | 5.2 | 0.00 | 0.00 | 0.00 | 29 | 1010.9 |
| 20260504200115 | 59 | 194 | 0.9 | 15.6 | 0.00 | 0.00 | 0.00 | 30 | 1011.1 |
| 20260504194559 | 59 | 283 | 5.2 | 11.3 | 0.00 | 0.00 | 0.00 | 31 | 1011.5 |
| 20260504193056 | 60 | 210 | 3.5 | 12.2 | 0.00 | 0.00 | 0.00 | 29 | 1011.2 |
| 20260504191602 | 61 | 211 | 3.5 | 12.2 | 0.00 | 0.00 | 0.00 | 25 | 1011.3 |
| 20260504190100 | 62 | 205 | 2.6 | 8.7 | 0.00 | 0.00 | 0.00 | 26 | 1011.2 |
| 20260504184600 | 62 | 171 | 1.7 | 8.7 | 0.00 | 0.00 | 0.00 | 27 | 1011.3 |
| 20260504183057 | 62 | 252 | 2.6 | 5.2 | 0.00 | 0.00 | 0.00 | 27 | 1011.6 |
| 20260504181557 | 63 | 187 | 2.6 | 7.8 | 0.00 | 0.00 | 0.00 | 26 | 1011.7 |
| 20260504180056 | 64 | 16 | 1.7 | 5.2 | 0.00 | 0.00 | 0.00 | 26 | 1011.9 |
| 20260504174615 | 62 | 150 | 0.9 | 4.3 | 0.00 | 0.00 | 0.00 | 28 | 1012.2 |
| 20260504173100 | 60 | 66 | 0.0 | 3.5 | 0.00 | 0.00 | 0.00 | 30 | 1012.7 |
| 20260504171557 | 58 | 20 | 1.7 | 5.2 | 0.00 | 0.00 | 0.00 | 31 | 1013.0 |
| 20260504160107 | 55 | 206 | 2.6 | 12.2 | 0.00 | 0.00 | 0.00 | 35 | 1012.8 |
| 20260504150106 | 54 | 260 | 0.9 | 6.1 | 0.00 | 0.00 | 0.00 | 34 | 1012.9 |
| 20260504090104 | 47 | 241 | 0.0 | 1.7 | 0.00 | 0.00 | 0.00 | 34 | 1013.0 |
| 20260504081555 | 48 | 236 | 0.9 | 2.6 | 0.00 | 0.00 | 0.00 | 35 | 1013.2 |